Location: ??
(35.4627°N, 139.3695°E)
Time: 15:52:24
(UTC+00:00)

OAO 2 Rocket - Pass Details

Date: 25 November 2020
Orbit: 676 x 745 km, 35.0° (Epoch: 20 January)

Event Time Altitude Azimuth Distance (km) Brightness Sun altitude
Exits shadow 19:47:53 34° 239° (WSW) 1,133 4.0 -20.2°
Maximum altitude 19:49:59 68° 167° (SSE) 757 3.5 -19.8°
Drops below altitude 10° 19:55:05 10° 85° (E) 2,190 7.0 -18.8°
Sets 19:57:33 0° 83° (E) 3,123 8.0 -18.3°
